| time (UTC) | temp F | wind direction | speed MPH | gust MPH | rain 1hr in | rain 24hr in | rain mn in | humidity % | barometer mb |
| 20260502180803 | 68 | 290 | 2.0 | 7.0 | 0.00 | 0.00 | 0.00 | 67 | 1014.2 |
| 20260502161804 | 73 | 259 | 3.0 | 12.0 | 0.00 | 0.00 | 0.00 | 56 | 1014.6 |
| 20260502161303 | 73 | 298 | 3.0 | 8.0 | 0.00 | 0.00 | 0.00 | 57 | 1014.7 |
| 20260502160804 | 74 | 228 | 2.0 | 9.0 | 0.00 | 0.00 | 0.00 | 57 | 1014.7 |
| 20260502160304 | 74 | 277 | 3.0 | 10.0 | 0.00 | 0.00 | 0.00 | 56 | 1014.7 |
| 20260502123803 | 74 | 260 | 4.0 | 13.0 | 0.00 | 0.00 | 0.00 | 43 | 1016.2 |
| 20260502123304 | 74 | 247 | 5.0 | 12.0 | 0.00 | 0.00 | 0.00 | 41 | 1016.2 |
| 20260502121804 | 75 | 268 | 5.0 | 12.0 | 0.00 | 0.00 | 0.00 | 37 | 1016.2 |
| 20260502121303 | 77 | 193 | 3.0 | 12.0 | 0.00 | 0.00 | 0.00 | 37 | 1016.2 |
| 20260502113303 | 76 | 255 | 3.0 | 7.0 | 0.00 | 0.00 | 0.00 | 36 | 1016.4 |
| 20260502111304 | 75 | 198 | 3.0 | 9.0 | 0.00 | 0.00 | 0.00 | 37 | 1016.6 |
| 20260502110804 | 74 | 195 | 4.0 | 9.0 | 0.00 | 0.00 | 0.00 | 36 | 1016.7 |
| 20260502110304 | 73 | 186 | 3.0 | 8.0 | 0.00 | 0.00 | 0.00 | 36 | 1016.7 |
| 20260502104303 | 73 | 216 | 3.0 | 6.0 | 0.00 | 0.00 | 0.00 | 40 | 1016.8 |
| 20260502103803 | 73 | 175 | 3.0 | 9.0 | 0.00 | 0.00 | 0.00 | 38 | 1016.9 |
| 20260502103303 | 72 | 233 | 3.0 | 9.0 | 0.00 | 0.00 | 0.00 | 41 | 1016.9 |
| 20260502101804 | 70 | 194 | 3.0 | 7.0 | 0.00 | 0.00 | 0.00 | 41 | 1016.9 |
| 20260502101303 | 70 | 232 | 3.0 | 7.0 | 0.00 | 0.00 | 0.00 | 43 | 1016.9 |
| 20260502091304 | 74 | 188 | 3.0 | 8.0 | 0.00 | 0.00 | 0.00 | 39 | 1017.1 |
| 20260502090803 | 74 | 161 | 3.0 | 9.0 | 0.00 | 0.00 | 0.00 | 38 | 1017.0 |
| 20260502071303 | 64 | 196 | 4.0 | 8.0 | 0.00 | 0.00 | 0.00 | 49 | 1017.6 |
| 20260502064804 | 62 | 207 | 4.0 | 8.0 | 0.00 | 0.00 | 0.00 | 51 | 1017.7 |
| 20260502061804 | 59 | 190 | 3.0 | 9.0 | 0.00 | 0.00 | 0.00 | 56 | 1017.7 |
| 20260502053804 | 55 | 174 | 2.0 | 7.0 | 0.00 | 0.00 | 0.00 | 59 | 1018.0 |
| 20260502051304 | 53 | 183 | 3.0 | 5.0 | 0.00 | 0.00 | 0.00 | 61 | 1018.0 |
| 20260502050804 | 53 | 193 | 2.0 | 6.0 | 0.00 | 0.00 | 0.00 | 62 | 1018.0 |
| 20260502044803 | 53 | 149 | 2.0 | 5.0 | 0.00 | 0.00 | 0.00 | 62 | 1018.1 |
| 20260502043303 | 52 | 166 | 3.0 | 6.0 | 0.00 | 0.00 | 0.00 | 62 | 1018.0 |
| 20260502041314 | 53 | 183 | 2.0 | 5.0 | 0.00 | 0.00 | 0.00 | 62 | 1018.2 |
| 20260502040303 | 53 | 179 | 2.0 | 3.0 | 0.00 | 0.00 | 0.00 | 62 | 1018.2 |
| 20260502034804 | 53 | 167 | 1.0 | 5.0 | 0.00 | 0.00 | 0.00 | 61 | 1018.3 |
| 20260502034303 | 53 | 185 | 1.0 | 3.0 | 0.00 | 0.00 | 0.00 | 61 | 1018.3 |
| 20260502031304 | 54 | 156 | 2.0 | 7.0 | 0.00 | 0.00 | 0.00 | 60 | 1018.4 |
| 20260502030304 | 54 | 172 | 2.0 | 3.0 | 0.00 | 0.00 | 0.00 | 59 | 1018.5 |
| 20260502023803 | 55 | 190 | 3.0 | 5.0 | 0.00 | 0.00 | 0.00 | 59 | 1018.7 |
| 20260502023303 | 55 | 181 | 3.0 | 5.0 | 0.00 | 0.00 | 0.00 | 59 | 1018.7 |
| 20260502021304 | 55 | 170 | 2.0 | 5.0 | 0.00 | 0.00 | 0.00 | 59 | 1018.9 |
| 20260502020804 | 55 | 178 | 2.0 | 3.0 | 0.00 | 0.00 | 0.00 | 59 | 1019.0 |
| 20260502020303 | 54 | 177 | 2.0 | 3.0 | 0.00 | 0.00 | 0.00 | 60 | 1019.0 |
| 20260502013804 | 54 | 144 | 1.0 | 2.0 | 0.00 | 0.00 | 0.00 | 63 | 1019.2 |
| 20260502011803 | 53 | 144 | 0.0 | 1.0 | 0.00 | 0.00 | 0.00 | 64 | 1019.3 |
| 20260502011304 | 53 | 144 | 0.0 | 1.0 | 0.00 | 0.00 | 0.00 | 65 | 1019.4 |
| 20260502010804 | 53 | 144 | 0.0 | 1.0 | 0.00 | 0.00 | 0.00 | 64 | 1019.4 |
| 20260501234804 | 54 | 144 | 0.0 | 0.0 | 0.00 | 0.00 | 0.00 | 64 | 1020.2 |
| 20260501233304 | 55 | 144 | 0.0 | 0.0 | 0.00 | 0.00 | 0.00 | 64 | 1020.3 |
| 20260501231303 | 56 | 144 | 0.0 | 0.0 | 0.00 | 0.00 | 0.00 | 61 | 1020.4 |
| 20260501224304 | 58 | 144 | 1.0 | 1.0 | 0.00 | 0.00 | 0.00 | 57 | 1020.6 |
| 20260501223804 | 58 | 144 | 0.0 | 1.0 | 0.00 | 0.00 | 0.00 | 57 | 1020.6 |
| 20260501220304 | 61 | 144 | 0.0 | 2.0 | 0.00 | 0.00 | 0.00 | 52 | 1020.7 |
| 20260501214303 | 61 | 144 | 0.0 | 1.0 | 0.00 | 0.00 | 0.00 | 51 | 1020.8 |
| 20260501211303 | 62 | 144 | 0.0 | 2.0 | 0.00 | 0.00 | 0.00 | 51 | 1020.9 |
| 20260501210803 | 62 | 144 | 0.0 | 1.0 | 0.00 | 0.00 | 0.00 | 51 | 1020.9 |
| 20260501210303 | 62 | 143 | 0.0 | 1.0 | 0.00 | 0.00 | 0.00 | 50 | 1020.9 |
| 20260501204804 | 62 | 144 | 0.0 | 1.0 | 0.00 | 0.00 | 0.00 | 49 | 1020.9 |
| 20260501203303 | 63 | 143 | 0.0 | 2.0 | 0.00 | 0.00 | 0.00 | 47 | 1021.0 |
| 20260501200803 | 64 | 143 | 0.0 | 1.0 | 0.00 | 0.00 | 0.00 | 46 | 1021.1 |
| 20260501194314 | 66 | 143 | 0.0 | 2.0 | 0.00 | 0.00 | 0.00 | 43 | 1021.1 |
| 20260501193304 | 67 | 144 | 0.0 | 3.0 | 0.00 | 0.00 | 0.00 | 42 | 1021.1 |
| 20260501190803 | 68 | 122 | 2.0 | 3.0 | 0.00 | 0.00 | 0.00 | 43 | 1021.1 |
| 20260501183804 | 70 | 149 | 1.0 | 3.0 | 0.00 | 0.00 | 0.00 | 38 | 1021.2 |
| 20260501183304 | 71 | 107 | 2.0 | 5.0 | 0.00 | 0.00 | 0.00 | 37 | 1021.1 |